Home   Weather   Orkanger/Fannrem   Past weeks

Flag for Norway Past Weather in Orkanger/Fannrem, Norway — Yesterday and Last 2 Weeks

Now
30 °F

Chilly.


Feels Like: 23 °F
Forecast: 29 / 40 °F
Wind: 7 mph from South

Location: Marstein

Current Time: Jan 17, 2017 at 3:57:43 am

Latest Report: Jan 17, 2017 at 3:00 am


Visibility: N/A

Pressure: 30.31 "Hg

Humidity: 74%

Dew Point: 22 °F

Location of Orkanger/FannremLocation

Past Weather in Orkanger/Fannrem — Graph

°F

Orkanger/Fannrem Temperature Yesterday

Maximum temperature yesterday: 29 °F (at 11:00 pm)
Minimum temperature yesterday: 18 °F (at 1:00 am)
Average temperature yesterday: 24 °F

High & Low Weather Summary for the Past Weeks

 TemperatureHumidityPressure
High51 °F (Jan 9, 4:00 pm)95% (Jan 2, 10:00 pm)30.58 "Hg (Jan 2, 10:00 pm)
Low14 °F (Jan 5, 1:00 am)41% (Jan 10, 8:00 pm)28.58 "Hg (Jan 11, 12:00 pm)
Average31 °F78%29.70 "Hg
* Reported Jan 2 2:00 am — Jan 17 2:00 am, Orkanger/Fannrem, Weather by CustomWeather, © 2017

Note: Actual official high and low records may vary slightly from our data, if they occured in-between our weather recording intervals... More about our weather records

Advertising

Orkanger/Fannrem Weather History for the Previous 24 Hours

Scroll right to see more
 ConditionsComfort  
Time TempWeatherWind HumidityBarometerVisibility
2:00 am
Tue, Jan 17
29 °FChilly.6 mph75%30.31 "HgN/A
1:00 am28 °FChilly.6 mph80%30.31 "HgN/A
12:00 am28 °FChilly.6 mph76%30.32 "HgN/A
11:00 pm
Mon, Jan 16
29 °FChilly.7 mph76%30.32 "HgN/A
10:00 pm28 °FChilly.5 mph78%30.32 "HgN/A
9:00 pm28 °FChilly.5 mph72%30.32 "HgN/A
8:00 pm27 °FChilly.5 mph73%30.32 "HgN/A
7:00 pm27 °FChilly.5 mph64%30.32 "HgN/A
6:00 pm26 °FChilly.5 mph64%30.32 "HgN/A
5:00 pm26 °FChilly.6 mph65%30.32 "HgN/A
4:00 pm25 °FChilly.5 mph69%30.32 "HgN/A
3:00 pm24 °FCold.6 mph71%30.32 "HgN/A
2:00 pm23 °FCold.6 mph72%30.33 "HgN/A
1:00 pm23 °FCold.5 mph73%30.34 "HgN/A
12:00 pm23 °FCold.5 mph74%30.36 "HgN/A
11:00 am22 °FCold.3 mph76%30.36 "HgN/A
10:00 am21 °FCold.3 mph76%30.37 "HgN/A
9:00 am22 °FCold.5 mph76%30.36 "HgN/A
8:00 am21 °FCold.5 mph78%30.35 "HgN/A
7:00 am22 °FCold.3 mph80%30.35 "HgN/A
6:00 am22 °FCold.5 mph82%30.35 "HgN/A
5:00 am22 °FCold.3 mph89%30.34 "HgN/A
4:00 am23 °FCold.2 mph90%30.35 "HgN/A
3:00 am22 °FCold.1 mph92%30.34 "HgN/A
Weather by CustomWeather, © 2017

See weather overviewHow to use our weather pages